owner,sensor,date,latitude,longitude,air_temperature,qcFlag 
NDBC,ioos:station:NOAA.NDBC:SAUF1:1,2013-12-04T16:00:00Z,29.8570,-81.2650,18.0,1111122 
NDBC,ioos:station:NOAA.NDBC:SAUF1:1,2013-12-04T17:00:00Z,29.8570,-81.2650,18.5,1111122 
NDBC,ioos:station:NOAA.NDBC:SAUF1:1,2013-12-04T18:00:00Z,29.8570,-81.2650,19.0,1111122 
NDBC,ioos:station:NOAA.NDBC:SAUF1:1,2013-12-04T19:00:00Z,29.8570,-81.2650,19.2,1111122 
NDBC,ioos:station:NOAA.NDBC:SAUF1:1,2013-12-04T20:00:00Z,29.8570,-81.2650,19.1,1111122 
NDBC,ioos:station:NOAA.NDBC:SAUF1:1,2013-12-04T21:00:00Z,29.8570,-81.2650,19.1,1111122 
NDBC,ioos:station:NOAA.NDBC:SAUF1:1,2013-12-04T22:00:00Z,29.8570,-81.2650,18.9,1111122 
NDBC,ioos:station:NOAA.NDBC:SAUF1:1,2013-12-04T23:00:00Z,29.8570,-81.2650,18.8,1111122 
NDBC,ioos:station:NOAA.NDBC:SAUF1:1,2013-12-05T00:00:00Z,29.8570,-81.2650,18.7,1111122 
NDBC,ioos:station:NOAA.NDBC:SAUF1:1,2013-12-05T01:00:00Z,29.8570,-81.2650,18.5,1111122 
NDBC,ioos:station:NOAA.NDBC:SAUF1:1,2013-12-05T02:00:00Z,29.8570,-81.2650,18.2,1111122 
NDBC,ioos:station:NOAA.NDBC:SAUF1:1,2013-12-05T03:00:00Z,29.8570,-81.2650,18.3,1111122 
NDBC,ioos:station:NOAA.NDBC:SAUF1:1,2013-12-05T04:00:00Z,29.8570,-81.2650,18.3,1111122 
NDBC,ioos:station:NOAA.NDBC:SAUF1:1,2013-12-05T05:00:00Z,29.8570,-81.2650,18.3,1111122 
NDBC,ioos:station:NOAA.NDBC:SAUF1:1,2013-12-05T06:00:00Z,29.8570,-81.2650,18.3,1111122 
NDBC,ioos:station:NOAA.NDBC:SAUF1:1,2013-12-05T08:00:00Z,29.8570,-81.2650,17.4,1111122 
NDBC,ioos:station:NOAA.NDBC:SAUF1:1,2013-12-05T09:00:00Z,29.8570,-81.2650,17.5,1111122 
NDBC,ioos:station:NOAA.NDBC:SAUF1:1,2013-12-05T10:00:00Z,29.8570,-81.2650,17.4,1111122 
NDBC,ioos:station:NOAA.NDBC:SAUF1:1,2013-12-05T11:00:00Z,29.8570,-81.2650,17.5,1111122 
NDBC,ioos:station:NOAA.NDBC:SAUF1:1,2013-12-05T12:00:00Z,29.8570,-81.2650,17.2,1111122 
NDBC,ioos:station:NOAA.NDBC:SAUF1:1,2013-12-05T13:00:00Z,29.8570,-81.2650,17.5,1111122 
NDBC,ioos:station:NOAA.NDBC:SAUF1:1,2013-12-05T14:00:00Z,29.8570,-81.2650,19.0,1111122 
NDBC,ioos:station:NOAA.NDBC:SAUF1:1,2013-12-05T15:00:00Z,29.8570,-81.2650,18.4,1111122 
NDBC,ioos:station:NOAA.NDBC:SAUF1:1,2013-12-05T16:00:00Z,29.8570,-81.2650,19.7,1111122 
NDBC,ioos:station:NOAA.NDBC:SAUF1:1,2013-12-05T17:00:00Z,29.8570,-81.2650,20.6,1111122 
NDBC,ioos:station:NOAA.NDBC:SAUF1:1,2013-12-05T18:00:00Z,29.8570,-81.2650,20.4,1111122 
NDBC,ioos:station:NOAA.NDBC:SAUF1:1,2013-12-05T19:00:00Z,29.8570,-81.2650,19.6,1111122 
NDBC,ioos:station:NOAA.NDBC:SAUF1:1,2013-12-05T20:00:00Z,29.8570,-81.2650,19.5,1111122 
NDBC,ioos:station:NOAA.NDBC:SAUF1:1,2013-12-05T21:00:00Z,29.8570,-81.2650,19.8,1111122 
NDBC,ioos:station:NOAA.NDBC:SAUF1:1,2013-12-05T22:00:00Z,29.8570,-81.2650,19.6,1111122 
NDBC,ioos:station:NOAA.NDBC:SAUF1:1,2013-12-05T23:00:00Z,29.8570,-81.2650,19.4,1111122 
NDBC,ioos:station:NOAA.NDBC:SAUF1:1,2013-12-06T00:00:00Z,29.8570,-81.2650,19.4,1111122 
NDBC,ioos:station:NOAA.NDBC:SAUF1:1,2013-12-06T01:00:00Z,29.8570,-81.2650,19.3,1111122 
NDBC,ioos:station:NOAA.NDBC:SAUF1:1,2013-12-06T02:00:00Z,29.8570,-81.2650,19.0,1111122 
NDBC,ioos:station:NOAA.NDBC:SAUF1:1,2013-12-06T03:00:00Z,29.8570,-81.2650,18.8,1111122 
NDBC,ioos:station:NOAA.NDBC:SAUF1:1,2013-12-06T04:00:00Z,29.8570,-81.2650,18.6,1111122 
NDBC,ioos:station:NOAA.NDBC:SAUF1:1,2013-12-06T05:00:00Z,29.8570,-81.2650,18.6,1111122 
NDBC,ioos:station:NOAA.NDBC:SAUF1:1,2013-12-06T06:00:00Z,29.8570,-81.2650,18.6,1111122 
NDBC,ioos:station:NOAA.NDBC:SAUF1:1,2013-12-06T07:00:00Z,29.8570,-81.2650,18.3,1111122 
NDBC,ioos:station:NOAA.NDBC:SAUF1:1,2013-12-06T08:00:00Z,29.8570,-81.2650,18.4,1111122 
NDBC,ioos:station:NOAA.NDBC:SAUF1:1,2013-12-06T09:00:00Z,29.8570,-81.2650,18.3,1111122 
NDBC,ioos:station:NOAA.NDBC:SAUF1:1,2013-12-06T10:00:00Z,29.8570,-81.2650,18.9,1111122 
NDBC,ioos:station:NOAA.NDBC:SAUF1:1,2013-12-06T11:00:00Z,29.8570,-81.2650,19.1,1111122 
NDBC,ioos:station:NOAA.NDBC:SAUF1:1,2013-12-06T12:00:00Z,29.8570,-81.2650,19.1,1111122 
NDBC,ioos:station:NOAA.NDBC:SAUF1:1,2013-12-06T13:00:00Z,29.8570,-81.2650,18.9,1111122 
NDBC,ioos:station:NOAA.NDBC:SAUF1:1,2013-12-06T14:00:00Z,29.8570,-81.2650,20.8,1111122 
NDBC,ioos:station:NOAA.NDBC:SAUF1:1,2013-12-06T15:00:00Z,29.8570,-81.2650,19.8,1111122 
NDBC,ioos:station:NOAA.NDBC:SAUF1:1,2013-12-06T16:00:00Z,29.8570,-81.2650,19.6,1111122 
NDBC,ioos:station:NOAA.NDBC:SAUF1:1,2013-12-06T17:00:00Z,29.8570,-81.2650,20.1,1111122 
NDBC,ioos:station:NOAA.NDBC:SAUF1:1,2013-12-06T18:00:00Z,29.8570,-81.2650,19.9,1111122 
NDBC,ioos:station:NOAA.NDBC:SAUF1:1,2013-12-06T19:00:00Z,29.8570,-81.2650,20.1,1111122 
NDBC,ioos:station:NOAA.NDBC:SAUF1:1,2013-12-06T20:00:00Z,29.8570,-81.2650,20.0,1111122 
NDBC,ioos:station:NOAA.NDBC:SAUF1:1,2013-12-06T21:00:00Z,29.8570,-81.2650,20.3,1111122 
NDBC,ioos:station:NOAA.NDBC:SAUF1:1,2013-12-06T22:00:00Z,29.8570,-81.2650,20.0,1111122 
NDBC,ioos:station:NOAA.NDBC:SAUF1:1,2013-12-06T23:00:00Z,29.8570,-81.2650,19.7,1111122 
NDBC,ioos:station:NOAA.NDBC:SAUF1:1,2013-12-07T00:00:00Z,29.8570,-81.2650,19.7,1111122 
NDBC,ioos:station:NOAA.NDBC:SAUF1:1,2013-12-07T01:00:00Z,29.8570,-81.2650,19.6,1111122 
NDBC,ioos:station:NOAA.NDBC:SAUF1:1,2013-12-07T02:00:00Z,29.8570,-81.2650,19.5,1111122 
NDBC,ioos:station:NOAA.NDBC:SAUF1:1,2013-12-07T03:00:00Z,29.8570,-81.2650,21.3,1111122 
NDBC,ioos:station:NOAA.NDBC:SAUF1:1,2013-12-07T04:00:00Z,29.8570,-81.2650,20.5,1111122 
NDBC,ioos:station:NOAA.NDBC:SAUF1:1,2013-12-07T05:00:00Z,29.8570,-81.2650,20.0,1111122 
NDBC,ioos:station:NOAA.NDBC:SAUF1:1,2013-12-07T06:00:00Z,29.8570,-81.2650,20.4,1111122 
NDBC,ioos:station:NOAA.NDBC:SAUF1:1,2013-12-07T07:00:00Z,29.8570,-81.2650,19.9,1111122 
NDBC,ioos:station:NOAA.NDBC:SAUF1:1,2013-12-07T08:00:00Z,29.8570,-81.2650,19.1,1111122 
NDBC,ioos:station:NOAA.NDBC:SAUF1:1,2013-12-07T09:00:00Z,29.8570,-81.2650,19.1,1111122 
NDBC,ioos:station:NOAA.NDBC:SAUF1:1,2013-12-07T10:00:00Z,29.8570,-81.2650,19.3,1111122 
NDBC,ioos:station:NOAA.NDBC:SAUF1:1,2013-12-07T11:00:00Z,29.8570,-81.2650,19.0,1111122 
NDBC,ioos:station:NOAA.NDBC:SAUF1:1,2013-12-07T12:00:00Z,29.8570,-81.2650,19.0,1111122 
NDBC,ioos:station:NOAA.NDBC:SAUF1:1,2013-12-07T13:00:00Z,29.8570,-81.2650,20.3,1111122 
NDBC,ioos:station:NOAA.NDBC:SAUF1:1,2013-12-07T14:00:00Z,29.8570,-81.2650,22.7,1111122 
NDBC,ioos:station:NOAA.NDBC:SAUF1:1,2013-12-07T15:00:00Z,29.8570,-81.2650,21.4,1111122 
NDBC,ioos:station:NOAA.NDBC:SAUF1:1,2013-12-07T16:00:00Z,29.8570,-81.2650,25.5,1111122 
NDBC,ioos:station:NOAA.NDBC:SAUF1:1,2013-12-07T17:00:00Z,29.8570,-81.2650,23.7,1111122 
NDBC,ioos:station:NOAA.NDBC:SAUF1:1,2013-12-07T18:00:00Z,29.8570,-81.2650,20.4,1111122 
NDBC,ioos:station:NOAA.NDBC:SAUF1:1,2013-12-07T19:00:00Z,29.8570,-81.2650,20.6,1111122 
NDBC,ioos:station:NOAA.NDBC:SAUF1:1,2013-12-07T20:00:00Z,29.8570,-81.2650,20.3,1111122 
NDBC,ioos:station:NOAA.NDBC:SAUF1:1,2013-12-07T21:00:00Z,29.8570,-81.2650,20.4,1111122 
NDBC,ioos:station:NOAA.NDBC:SAUF1:1,2013-12-07T22:00:00Z,29.8570,-81.2650,20.3,1111122 
NDBC,ioos:station:NOAA.NDBC:SAUF1:1,2013-12-07T23:00:00Z,29.8570,-81.2650,20.1,1111122 
NDBC,ioos:station:NOAA.NDBC:SAUF1:1,2013-12-08T00:00:00Z,29.8570,-81.2650,19.9,1111122 
NDBC,ioos:station:NOAA.NDBC:SAUF1:1,2013-12-08T01:00:00Z,29.8570,-81.2650,19.8,1111122 
NDBC,ioos:station:NOAA.NDBC:SAUF1:1,2013-12-08T02:00:00Z,29.8570,-81.2650,19.5,1111122 
NDBC,ioos:station:NOAA.NDBC:SAUF1:1,2013-12-08T03:00:00Z,29.8570,-81.2650,19.4,1111122 
NDBC,ioos:station:NOAA.NDBC:SAUF1:1,2013-12-08T04:00:00Z,29.8570,-81.2650,19.3,1111122 
NDBC,ioos:station:NOAA.NDBC:SAUF1:1,2013-12-08T05:00:00Z,29.8570,-81.2650,19.2,1111122 
NDBC,ioos:station:NOAA.NDBC:SAUF1:1,2013-12-08T06:00:00Z,29.8570,-81.2650,18.9,1111122 
NDBC,ioos:station:NOAA.NDBC:SAUF1:1,2013-12-08T07:00:00Z,29.8570,-81.2650,18.8,1111122 
NDBC,ioos:station:NOAA.NDBC:SAUF1:1,2013-12-08T08:00:00Z,29.8570,-81.2650,19.2,1111122 
NDBC,ioos:station:NOAA.NDBC:SAUF1:1,2013-12-08T09:00:00Z,29.8570,-81.2650,19.0,1111122 
NDBC,ioos:station:NOAA.NDBC:SAUF1:1,2013-12-08T10:00:00Z,29.8570,-81.2650,18.1,1111122 
NDBC,ioos:station:NOAA.NDBC:SAUF1:1,2013-12-08T11:00:00Z,29.8570,-81.2650,18.1,1111122 
NDBC,ioos:station:NOAA.NDBC:SAUF1:1,2013-12-08T12:00:00Z,29.8570,-81.2650,17.4,1111122 
NDBC,ioos:station:NOAA.NDBC:SAUF1:1,2013-12-08T13:00:00Z,29.8570,-81.2650,17.2,1111122 
NDBC,ioos:station:NOAA.NDBC:SAUF1:1,2013-12-08T14:00:00Z,29.8570,-81.2650,17.1,1111122 
NDBC,ioos:station:NOAA.NDBC:SAUF1:1,2013-12-08T15:00:00Z,29.8570,-81.2650,17.0,1111122 
NDBC,ioos:station:NOAA.NDBC:SAUF1:1,2013-12-08T16:00:00Z,29.8570,-81.2650,17.1,1111122 
NDBC,ioos:station:NOAA.NDBC:SAUF1:1,2013-12-08T17:00:00Z,29.8570,-81.2650,17.3,1111122 
NDBC,ioos:station:NOAA.NDBC:SAUF1:1,2013-12-08T18:00:00Z,29.8570,-81.2650,17.7,1111122 
NDBC,ioos:station:NOAA.NDBC:SAUF1:1,2013-12-08T19:00:00Z,29.8570,-81.2650,17.8,1111122 
NDBC,ioos:station:NOAA.NDBC:SAUF1:1,2013-12-08T22:00:00Z,29.8570,-81.2650,18.0,1111122 
NDBC,ioos:station:NOAA.NDBC:SAUF1:1,2013-12-09T00:00:00Z,29.8570,-81.2650,17.8,1111122 
NDBC,ioos:station:NOAA.NDBC:SAUF1:1,2013-12-09T01:00:00Z,29.8570,-81.2650,18.5,1111122 
NDBC,ioos:station:NOAA.NDBC:SAUF1:1,2013-12-09T02:00:00Z,29.8570,-81.2650,18.5,1111122 
NDBC,ioos:station:NOAA.NDBC:SAUF1:1,2013-12-09T03:00:00Z,29.8570,-81.2650,18.6,1111122 
NDBC,ioos:station:NOAA.NDBC:SAUF1:1,2013-12-09T04:00:00Z,29.8570,-81.2650,18.8,1111122 
NDBC,ioos:station:NOAA.NDBC:SAUF1:1,2013-12-09T06:00:00Z,29.8570,-81.2650,17.9,1111122 
NDBC,ioos:station:NOAA.NDBC:SAUF1:1,2013-12-09T07:00:00Z,29.8570,-81.2650,17.3,1111122 
NDBC,ioos:station:NOAA.NDBC:SAUF1:1,2013-12-09T08:00:00Z,29.8570,-81.2650,17.6,1111122 
NDBC,ioos:station:NOAA.NDBC:SAUF1:1,2013-12-09T09:00:00Z,29.8570,-81.2650,18.1,1111122 
NDBC,ioos:station:NOAA.NDBC:SAUF1:1,2013-12-09T10:00:00Z,29.8570,-81.2650,17.8,1111122 
NDBC,ioos:station:NOAA.NDBC:SAUF1:1,2013-12-09T12:00:00Z,29.8570,-81.2650,17.5,1111122 
NDBC,ioos:station:NOAA.NDBC:SAUF1:1,2013-12-09T13:00:00Z,29.8570,-81.2650,18.8,1111122 
NDBC,ioos:station:NOAA.NDBC:SAUF1:1,2013-12-09T14:00:00Z,29.8570,-81.2650,18.5,1111122 
NDBC,ioos:station:NOAA.NDBC:SAUF1:1,2013-12-09T16:00:00Z,29.8570,-81.2650,19.8,1111122 
NDBC,ioos:station:NOAA.NDBC:SAUF1:1,2013-12-09T17:00:00Z,29.8570,-81.2650,20.3,1111122 
NDBC,ioos:station:NOAA.NDBC:SAUF1:1,2013-12-10T08:00:00Z,29.8570,-81.2650,20.2,1111122 
NDBC,ioos:station:NOAA.NDBC:SAUF1:1,2013-12-10T11:00:00Z,29.8570,-81.2650,19.0,1111122 
NDBC,ioos:station:NOAA.NDBC:SAUF1:1,2013-12-10T21:00:00Z,29.8570,-81.2650,20.6,1111122 
NDBC,ioos:station:NOAA.NDBC:SAUF1:1,2013-12-12T16:00:00Z,29.8570,-81.2650,13.6,1111122 
NDBC,ioos:station:NOAA.NDBC:SAUF1:1,2013-12-12T18:00:00Z,29.8570,-81.2650,13.5,1111122 
NDBC,ioos:station:NOAA.NDBC:SAUF1:1,2013-12-12T23:00:00Z,29.8570,-81.2650,14.3,1111122 
NDBC,ioos:station:NOAA.NDBC:SAUF1:1,2013-12-13T06:00:00Z,29.8570,-81.2650,15.6,1111122 
NDBC,ioos:station:NOAA.NDBC:SAUF1:1,2013-12-13T07:00:00Z,29.8570,-81.2650,16.2,1111122 
NDBC,ioos:station:NOAA.NDBC:SAUF1:1,2013-12-13T08:00:00Z,29.8570,-81.2650,16.5,1111122 
NDBC,ioos:station:NOAA.NDBC:SAUF1:1,2013-12-13T09:00:00Z,29.8570,-81.2650,16.1,1111122 
NDBC,ioos:station:NOAA.NDBC:SAUF1:1,2013-12-13T10:00:00Z,29.8570,-81.2650,16.5,1111122 
NDBC,ioos:station:NOAA.NDBC:SAUF1:1,2013-12-13T11:00:00Z,29.8570,-81.2650,17.3,1111122 
NDBC,ioos:station:NOAA.NDBC:SAUF1:1,2013-12-13T12:00:00Z,29.8570,-81.2650,17.4,1111122 
NDBC,ioos:station:NOAA.NDBC:SAUF1:1,2013-12-13T13:00:00Z,29.8570,-81.2650,13.7,1111122 
NDBC,ioos:station:NOAA.NDBC:SAUF1:1,2013-12-13T14:00:00Z,29.8570,-81.2650,14.0,1111122 
NDBC,ioos:station:NOAA.NDBC:SAUF1:1,2013-12-13T15:00:00Z,29.8570,-81.2650,16.4,1111122 
NDBC,ioos:station:NOAA.NDBC:SAUF1:1,2013-12-13T16:00:00Z,29.8570,-81.2650,16.2,1111122 
NDBC,ioos:station:NOAA.NDBC:SAUF1:1,2013-12-13T17:00:00Z,29.8570,-81.2650,16.6,1111122 
NDBC,ioos:station:NOAA.NDBC:SAUF1:1,2013-12-13T18:00:00Z,29.8570,-81.2650,16.6,1111122 
NDBC,ioos:station:NOAA.NDBC:SAUF1:1,2013-12-13T19:00:00Z,29.8570,-81.2650,16.9,1111122 
NDBC,ioos:station:NOAA.NDBC:SAUF1:1,2013-12-13T20:00:00Z,29.8570,-81.2650,17.0,1111122 
NDBC,ioos:station:NOAA.NDBC:SAUF1:1,2013-12-13T21:00:00Z,29.8570,-81.2650,17.2,1111122 
NDBC,ioos:station:NOAA.NDBC:SAUF1:1,2013-12-13T22:00:00Z,29.8570,-81.2650,17.5,1111122 
NDBC,ioos:station:NOAA.NDBC:SAUF1:1,2013-12-13T23:00:00Z,29.8570,-81.2650,16.4,1111122 
NDBC,ioos:station:NOAA.NDBC:SAUF1:1,2013-12-14T00:00:00Z,29.8570,-81.2650,15.9,1111122 
NDBC,ioos:station:NOAA.NDBC:SAUF1:1,2013-12-14T01:00:00Z,29.8570,-81.2650,15.8,1111122 
NDBC,ioos:station:NOAA.NDBC:SAUF1:1,2013-12-14T02:00:00Z,29.8570,-81.2650,15.9,1111122 
NDBC,ioos:station:NOAA.NDBC:SAUF1:1,2013-12-14T03:00:00Z,29.8570,-81.2650,15.8,1111122 
NDBC,ioos:station:NOAA.NDBC:SAUF1:1,2013-12-14T04:00:00Z,29.8570,-81.2650,16.7,1111122 
NDBC,ioos:station:NOAA.NDBC:SAUF1:1,2013-12-14T05:00:00Z,29.8570,-81.2650,18.1,1111122 
NDBC,ioos:station:NOAA.NDBC:SAUF1:1,2013-12-14T06:00:00Z,29.8570,-81.2650,18.3,1111122 
NDBC,ioos:station:NOAA.NDBC:SAUF1:1,2013-12-14T07:00:00Z,29.8570,-81.2650,18.5,1111122 
NDBC,ioos:station:NOAA.NDBC:SAUF1:1,2013-12-14T08:00:00Z,29.8570,-81.2650,18.2,1111122 
NDBC,ioos:station:NOAA.NDBC:SAUF1:1,2013-12-14T09:00:00Z,29.8570,-81.2650,18.5,1111122 
NDBC,ioos:station:NOAA.NDBC:SAUF1:1,2013-12-14T10:00:00Z,29.8570,-81.2650,18.6,1111122 
NDBC,ioos:station:NOAA.NDBC:SAUF1:1,2013-12-14T11:00:00Z,29.8570,-81.2650,18.3,1111122 
NDBC,ioos:station:NOAA.NDBC:SAUF1:1,2013-12-14T12:00:00Z,29.8570,-81.2650,17.9,1111122 
NDBC,ioos:station:NOAA.NDBC:SAUF1:1,2013-12-14T13:00:00Z,29.8570,-81.2650,18.1,1111122 
NDBC,ioos:station:NOAA.NDBC:SAUF1:1,2013-12-14T14:00:00Z,29.8570,-81.2650,18.0,1111122 
NDBC,ioos:station:NOAA.NDBC:SAUF1:1,2013-12-14T15:00:00Z,29.8570,-81.2650,18.3,1111122 
NDBC,ioos:station:NOAA.NDBC:SAUF1:1,2013-12-14T16:00:00Z,29.8570,-81.2650,18.8,1111122 
NDBC,ioos:station:NOAA.NDBC:SAUF1:1,2013-12-14T17:00:00Z,29.8570,-81.2650,19.4,1111122 
NDBC,ioos:station:NOAA.NDBC:SAUF1:1,2013-12-14T18:00:00Z,29.8570,-81.2650,19.5,1111122 
NDBC,ioos:station:NOAA.NDBC:SAUF1:1,2013-12-14T19:00:00Z,29.8570,-81.2650,19.2,1111122 
NDBC,ioos:station:NOAA.NDBC:SAUF1:1,2013-12-14T20:00:00Z,29.8570,-81.2650,19.2,1111122 
NDBC,ioos:station:NOAA.NDBC:SAUF1:1,2013-12-14T21:00:00Z,29.8570,-81.2650,19.1,1111122 
NDBC,ioos:station:NOAA.NDBC:SAUF1:1,2013-12-14T22:00:00Z,29.8570,-81.2650,18.9,1111122 
NDBC,ioos:station:NOAA.NDBC:SAUF1:1,2013-12-14T23:00:00Z,29.8570,-81.2650,18.4,1111122 
NDBC,ioos:station:NOAA.NDBC:SAUF1:1,2013-12-15T00:00:00Z,29.8570,-81.2650,18.6,1111122 
NDBC,ioos:station:NOAA.NDBC:SAUF1:1,2013-12-15T01:00:00Z,29.8570,-81.2650,19.0,1111122 
NDBC,ioos:station:NOAA.NDBC:SAUF1:1,2013-12-15T02:00:00Z,29.8570,-81.2650,19.7,1111122 
NDBC,ioos:station:NOAA.NDBC:SAUF1:1,2013-12-15T03:00:00Z,29.8570,-81.2650,19.2,1111122 
NDBC,ioos:station:NOAA.NDBC:SAUF1:1,2013-12-15T04:00:00Z,29.8570,-81.2650,19.1,1111122 
NDBC,ioos:station:NOAA.NDBC:SAUF1:1,2013-12-15T05:00:00Z,29.8570,-81.2650,18.4,1111122 
NDBC,ioos:station:NOAA.NDBC:SAUF1:1,2013-12-15T06:00:00Z,29.8570,-81.2650,18.5,1111122 
NDBC,ioos:station:NOAA.NDBC:SAUF1:1,2013-12-15T07:00:00Z,29.8570,-81.2650,18.7,1111122 
NDBC,ioos:station:NOAA.NDBC:SAUF1:1,2013-12-15T08:00:00Z,29.8570,-81.2650,18.7,1111122 
NDBC,ioos:station:NOAA.NDBC:SAUF1:1,2013-12-15T09:00:00Z,29.8570,-81.2650,18.6,1111122 
NDBC,ioos:station:NOAA.NDBC:SAUF1:1,2013-12-15T10:00:00Z,29.8570,-81.2650,18.7,1111122 
NDBC,ioos:station:NOAA.NDBC:SAUF1:1,2013-12-15T11:00:00Z,29.8570,-81.2650,18.9,1111122 
NDBC,ioos:station:NOAA.NDBC:SAUF1:1,2013-12-15T12:00:00Z,29.8570,-81.2650,15.7,1111122 
NDBC,ioos:station:NOAA.NDBC:SAUF1:1,2013-12-15T13:00:00Z,29.8570,-81.2650,15.1,1111122 
NDBC,ioos:station:NOAA.NDBC:SAUF1:1,2013-12-15T14:00:00Z,29.8570,-81.2650,15.1,1111122 
NDBC,ioos:station:NOAA.NDBC:SAUF1:1,2013-12-15T15:00:00Z,29.8570,-81.2650,15.2,1111122 
NDBC,ioos:station:NOAA.NDBC:SAUF1:1,2013-12-15T16:00:00Z,29.8570,-81.2650,15.5,1111122 
NDBC,ioos:station:NOAA.NDBC:SAUF1:1,2013-12-15T17:00:00Z,29.8570,-81.2650,16.5,1111122 
NDBC,ioos:station:NOAA.NDBC:SAUF1:1,2013-12-15T18:00:00Z,29.8570,-81.2650,17.8,1111122 
NDBC,ioos:station:NOAA.NDBC:SAUF1:1,2013-12-15T19:00:00Z,29.8570,-81.2650,18.3,1111122 
NDBC,ioos:station:NOAA.NDBC:SAUF1:1,2013-12-15T20:00:00Z,29.8570,-81.2650,18.8,1111122 
NDBC,ioos:station:NOAA.NDBC:SAUF1:1,2013-12-15T21:00:00Z,29.8570,-81.2650,18.8,1111122 
NDBC,ioos:station:NOAA.NDBC:SAUF1:1,2013-12-15T22:00:00Z,29.8570,-81.2650,17.2,1111122 
NDBC,ioos:station:NOAA.NDBC:SAUF1:1,2013-12-15T23:00:00Z,29.8570,-81.2650,15.4,1111122 
NDBC,ioos:station:NOAA.NDBC:SAUF1:1,2013-12-16T00:00:00Z,29.8570,-81.2650,14.4,1111122 
NDBC,ioos:station:NOAA.NDBC:SAUF1:1,2013-12-16T01:00:00Z,29.8570,-81.2650,13.7,1111122 
NDBC,ioos:station:NOAA.NDBC:SAUF1:1,2013-12-16T02:00:00Z,29.8570,-81.2650,12.8,1111122 
NDBC,ioos:station:NOAA.NDBC:SAUF1:1,2013-12-16T04:00:00Z,29.8570,-81.2650,9.8,1111122 
NDBC,ioos:station:NOAA.NDBC:SAUF1:1,2013-12-16T05:00:00Z,29.8570,-81.2650,9.4,1111122 
NDBC,ioos:station:NOAA.NDBC:SAUF1:1,2013-12-16T06:00:00Z,29.8570,-81.2650,9.0,1111122 
NDBC,ioos:station:NOAA.NDBC:SAUF1:1,2013-12-16T07:00:00Z,29.8570,-81.2650,8.4,1111122 
NDBC,ioos:station:NOAA.NDBC:SAUF1:1,2013-12-16T08:00:00Z,29.8570,-81.2650,7.7,1111122 
NDBC,ioos:station:NOAA.NDBC:SAUF1:1,2013-12-16T09:00:00Z,29.8570,-81.2650,7.2,1111122 
NDBC,ioos:station:NOAA.NDBC:SAUF1:1,2013-12-16T10:00:00Z,29.8570,-81.2650,6.3,1111122 
NDBC,ioos:station:NOAA.NDBC:SAUF1:1,2013-12-16T11:00:00Z,29.8570,-81.2650,5.8,1111122 
NDBC,ioos:station:NOAA.NDBC:SAUF1:1,2013-12-16T12:00:00Z,29.8570,-81.2650,5.2,1111122 
NDBC,ioos:station:NOAA.NDBC:SAUF1:1,2013-12-16T13:00:00Z,29.8570,-81.2650,5.2,1111122 
NDBC,ioos:station:NOAA.NDBC:SAUF1:1,2013-12-16T14:00:00Z,29.8570,-81.2650,5.7,1111122 
NDBC,ioos:station:NOAA.NDBC:SAUF1:1,2013-12-16T15:00:00Z,29.8570,-81.2650,7.0,1111122 
NDBC,ioos:station:NOAA.NDBC:SAUF1:1,2013-12-16T16:00:00Z,29.8570,-81.2650,8.4,1111122 
NDBC,ioos:station:NOAA.NDBC:SAUF1:1,2013-12-16T17:00:00Z,29.8570,-81.2650,8.8,1111122 
NDBC,ioos:station:NOAA.NDBC:SAUF1:1,2013-12-16T18:00:00Z,29.8570,-81.2650,9.3,1111122 
NDBC,ioos:station:NOAA.NDBC:SAUF1:1,2013-12-16T19:00:00Z,29.8570,-81.2650,10.2,1111122 
NDBC,ioos:station:NOAA.NDBC:SAUF1:1,2013-12-16T20:00:00Z,29.8570,-81.2650,11.0,1111122 
NDBC,ioos:station:NOAA.NDBC:SAUF1:1,2013-12-16T21:00:00Z,29.8570,-81.2650,12.0,1111122 
NDBC,ioos:station:NOAA.NDBC:SAUF1:1,2013-12-16T22:00:00Z,29.8570,-81.2650,12.2,1111122 
NDBC,ioos:station:NOAA.NDBC:SAUF1:1,2013-12-16T23:00:00Z,29.8570,-81.2650,12.5,1111122 
NDBC,ioos:station:NOAA.NDBC:SAUF1:1,2013-12-17T00:00:00Z,29.8570,-81.2650,12.7,1111122 
NDBC,ioos:station:NOAA.NDBC:SAUF1:1,2013-12-17T01:00:00Z,29.8570,-81.2650,11.2,1111122 
NDBC,ioos:station:NOAA.NDBC:SAUF1:1,2013-12-17T02:00:00Z,29.8570,-81.2650,10.6,1111122 
NDBC,ioos:station:NOAA.NDBC:SAUF1:1,2013-12-17T03:00:00Z,29.8570,-81.2650,10.0,1111122 
NDBC,ioos:station:NOAA.NDBC:SAUF1:1,2013-12-17T04:00:00Z,29.8570,-81.2650,9.8,1111122 
NDBC,ioos:station:NOAA.NDBC:SAUF1:1,2013-12-17T05:00:00Z,29.8570,-81.2650,9.5,1111122 
NDBC,ioos:station:NOAA.NDBC:SAUF1:1,2013-12-17T06:00:00Z,29.8570,-81.2650,9.2,1111122 
NDBC,ioos:station:NOAA.NDBC:SAUF1:1,2013-12-17T07:00:00Z,29.8570,-81.2650,9.1,1111122 
NDBC,ioos:station:NOAA.NDBC:SAUF1:1,2013-12-17T08:00:00Z,29.8570,-81.2650,8.7,1111122 
NDBC,ioos:station:NOAA.NDBC:SAUF1:1,2013-12-17T09:00:00Z,29.8570,-81.2650,8.2,1111122 
NDBC,ioos:station:NOAA.NDBC:SAUF1:1,2013-12-17T10:00:00Z,29.8570,-81.2650,8.0,1111122 
NDBC,ioos:station:NOAA.NDBC:SAUF1:1,2013-12-17T11:00:00Z,29.8570,-81.2650,7.7,1111122 
NDBC,ioos:station:NOAA.NDBC:SAUF1:1,2013-12-17T12:00:00Z,29.8570,-81.2650,7.6,1111122 
NDBC,ioos:station:NOAA.NDBC:SAUF1:1,2013-12-17T13:00:00Z,29.8570,-81.2650,8.7,1111122 
NDBC,ioos:station:NOAA.NDBC:SAUF1:1,2013-12-17T14:00:00Z,29.8570,-81.2650,11.0,1111122 
NDBC,ioos:station:NOAA.NDBC:SAUF1:1,2013-12-17T15:00:00Z,29.8570,-81.2650,12.6,1111122 
NDBC,ioos:station:NOAA.NDBC:SAUF1:1,2013-12-17T16:00:00Z,29.8570,-81.2650,13.1,1111122 
NDBC,ioos:station:NOAA.NDBC:SAUF1:1,2013-12-17T17:00:00Z,29.8570,-81.2650,13.6,1111122 
NDBC,ioos:station:NOAA.NDBC:SAUF1:1,2013-12-17T18:00:00Z,29.8570,-81.2650,13.9,1111122 
NDBC,ioos:station:NOAA.NDBC:SAUF1:1,2013-12-17T19:00:00Z,29.8570,-81.2650,14.5,1111122 
NDBC,ioos:station:NOAA.NDBC:SAUF1:1,2013-12-17T20:00:00Z,29.8570,-81.2650,14.9,1111122 
NDBC,ioos:station:NOAA.NDBC:SAUF1:1,2013-12-17T21:00:00Z,29.8570,-81.2650,15.3,1111122 
NDBC,ioos:station:NOAA.NDBC:SAUF1:1,2013-12-17T22:00:00Z,29.8570,-81.2650,15.4,1111122 
NDBC,ioos:station:NOAA.NDBC:SAUF1:1,2013-12-17T23:00:00Z,29.8570,-81.2650,14.7,1111122 
NDBC,ioos:station:NOAA.NDBC:SAUF1:1,2013-12-18T01:00:00Z,29.8570,-81.2650,12.9,1111122 
NDBC,ioos:station:NOAA.NDBC:SAUF1:1,2013-12-18T02:00:00Z,29.8570,-81.2650,11.9,1111122 
NDBC,ioos:station:NOAA.NDBC:SAUF1:1,2013-12-18T03:00:00Z,29.8570,-81.2650,12.1,1111122 
NDBC,ioos:station:NOAA.NDBC:SAUF1:1,2013-12-18T04:00:00Z,29.8570,-81.2650,10.7,1111122 
NDBC,ioos:station:NOAA.NDBC:SAUF1:1,2013-12-18T05:00:00Z,29.8570,-81.2650,9.5,1111122 
NDBC,ioos:station:NOAA.NDBC:SAUF1:1,2013-12-18T06:00:00Z,29.8570,-81.2650,9.9,1111122 
NDBC,ioos:station:NOAA.NDBC:SAUF1:1,2013-12-18T07:00:00Z,29.8570,-81.2650,9.3,1111122 
NDBC,ioos:station:NOAA.NDBC:SAUF1:1,2013-12-18T08:00:00Z,29.8570,-81.2650,9.3,1111122 
NDBC,ioos:station:NOAA.NDBC:SAUF1:1,2013-12-18T09:00:00Z,29.8570,-81.2650,9.5,1111122 
NDBC,ioos:station:NOAA.NDBC:SAUF1:1,2013-12-18T10:00:00Z,29.8570,-81.2650,9.0,1111122 
NDBC,ioos:station:NOAA.NDBC:SAUF1:1,2013-12-18T11:00:00Z,29.8570,-81.2650,8.7,1111122 
NDBC,ioos:station:NOAA.NDBC:SAUF1:1,2013-12-18T12:00:00Z,29.8570,-81.2650,9.1,1111122 
NDBC,ioos:station:NOAA.NDBC:SAUF1:1,2013-12-18T13:00:00Z,29.8570,-81.2650,9.0,1111122 
NDBC,ioos:station:NOAA.NDBC:SAUF1:1,2013-12-18T14:00:00Z,29.8570,-81.2650,11.5,1111122 
NDBC,ioos:station:NOAA.NDBC:SAUF1:1,2013-12-18T15:00:00Z,29.8570,-81.2650,12.0,1111122 
NDBC,ioos:station:NOAA.NDBC:SAUF1:1,2013-12-18T16:00:00Z,29.8570,-81.2650,12.6,1111122 
NDBC,ioos:station:NOAA.NDBC:SAUF1:1,2013-12-18T17:00:00Z,29.8570,-81.2650,13.3,1111122 
NDBC,ioos:station:NOAA.NDBC:SAUF1:1,2013-12-18T18:00:00Z,29.8570,-81.2650,14.1,1111122 
NDBC,ioos:station:NOAA.NDBC:SAUF1:1,2013-12-18T19:00:00Z,29.8570,-81.2650,14.5,1111122 
NDBC,ioos:station:NOAA.NDBC:SAUF1:1,2013-12-18T20:00:00Z,29.8570,-81.2650,14.0,1111122 
NDBC,ioos:station:NOAA.NDBC:SAUF1:1,2013-12-18T21:00:00Z,29.8570,-81.2650,14.1,1111122 
NDBC,ioos:station:NOAA.NDBC:SAUF1:1,2013-12-18T22:00:00Z,29.8570,-81.2650,14.0,1111122 
NDBC,ioos:station:NOAA.NDBC:SAUF1:1,2013-12-19T00:00:00Z,29.8570,-81.2650,14.0,1111122 
NDBC,ioos:station:NOAA.NDBC:SAUF1:1,2013-12-19T01:00:00Z,29.8570,-81.2650,14.0,1111122 
NDBC,ioos:station:NOAA.NDBC:SAUF1:1,2013-12-19T02:00:00Z,29.8570,-81.2650,14.2,1111122 
NDBC,ioos:station:NOAA.NDBC:SAUF1:1,2013-12-19T03:00:00Z,29.8570,-81.2650,14.3,1111122 
NDBC,ioos:station:NOAA.NDBC:SAUF1:1,2013-12-19T05:00:00Z,29.8570,-81.2650,14.4,1111122 
NDBC,ioos:station:NOAA.NDBC:SAUF1:1,2013-12-19T06:00:00Z,29.8570,-81.2650,14.4,1111122 
NDBC,ioos:station:NOAA.NDBC:SAUF1:1,2013-12-19T07:00:00Z,29.8570,-81.2650,14.5,1111122 
NDBC,ioos:station:NOAA.NDBC:SAUF1:1,2013-12-19T08:00:00Z,29.8570,-81.2650,14.6,1111122 
NDBC,ioos:station:NOAA.NDBC:SAUF1:1,2013-12-19T09:00:00Z,29.8570,-81.2650,14.8,1111122 
NDBC,ioos:station:NOAA.NDBC:SAUF1:1,2013-12-19T10:00:00Z,29.8570,-81.2650,14.9,1111122 
NDBC,ioos:station:NOAA.NDBC:SAUF1:1,2013-12-19T11:00:00Z,29.8570,-81.2650,15.1,1111122 
NDBC,ioos:station:NOAA.NDBC:SAUF1:1,2013-12-19T12:00:00Z,29.8570,-81.2650,15.3,1111122 
NDBC,ioos:station:NOAA.NDBC:SAUF1:1,2013-12-19T13:00:00Z,29.8570,-81.2650,12.9,1111122 
NDBC,ioos:station:NOAA.NDBC:SAUF1:1,2013-12-19T14:00:00Z,29.8570,-81.2650,15.9,1111122 
NDBC,ioos:station:NOAA.NDBC:SAUF1:1,2013-12-19T15:00:00Z,29.8570,-81.2650,16.2,1111122 
NDBC,ioos:station:NOAA.NDBC:SAUF1:1,2013-12-19T18:00:00Z,29.8570,-81.2650,16.2,1111122 